Showing default

CONTECSAT-1, 59117

Orbit data source: Space-Track

CONTECSAT-1, 59117 is a payload satellite owned by CONTEC (KR) in SSO that was launched on Mon, 04 Mar 2024 UTC via an FALCON 9 launch vehicle from the Air Force Western Test Range (AFWTR). Payload-class satellites include a variety of spacecraft equipped with specific instruments for various scientific and technological missions. These include communications satellites like Starlink; space stations such as the ISS; scientific satellites like the Hubble; Earth observation satellites from companies like Planet Labs, Umbra, and HawkEye 360; GPS; miniature CubeSats for education and research; and military/defense satellites.

Loading next visibility...
Identifier
59117, 2024-043V
Orbit
SSO
Last TLE update
4 hours ago
Origin
Manufacturer
CONTEC
Mission
Operational Commercial Imaging
Bus & Motor
CUBESAT 16U, Unknown motor
Mass
~20 kg wet, ~20 kg dry
Launch date (UTC)
2024-03-04 (1 year ago)
Launch vehicle
FALCON 9
Launch site
Air Force Western Test Range (AFWTR)
Object type
Payload
Rocket body
Debris
Shape & HBR
Box, 0.3 m
Radar Cross Section
0.080 m², Medium (>0.1 m² and < 1m²)

Expand to show TLE details & history

TLE from 4 hours ago
0 CONTECSAT-1
1 59117U 24043V   25190.16540744  .00005416  00000-0  19854-3 0  9990
2 59117  97.5225 319.6881 0012685  20.0970 340.0766 15.28354116 74712
Epoch: 2025-07-09T03:58Z
TLE epoch observation values (Epoch: 2025-07-09T03:58:11.202Z)
Latitude
-0.00007°
Longitude
-27.20852°
Altitude
475.65 km
Speed
7.633 km/s
True Right ascension
21h 18m 45s
True Declination
0° 00' 00"
Sunlit
Object was in full shadow at epoch
Visualization orbit readout
Latitude
-62.54324°
Longitude
138.32867°
Altitude
511.023 km
Speed
7.603 km/s
Apparent Right ascension
08h 20m 23s
Apparent Declination
-51° 29' 54"
Sunlit
Object is in daylight
Visualization observer readout
Local Sidereal Time
20:20:03
Azimuth
180.256° SSW
Elevation
-78.418°
Doppler factor
1
Orbital elements
Apogee altitude
486.388 km
Perigee altitude
468.995 km
Semi-major axis
6,855.829 km
Eccentricity
0.00127
Inclination
97.5225°
RAAN
319.6881°
Arg. of periapsis
20.097°
True anomaly
Unknown
Mean anomaly
340.0766°
Eccentric anomaly
Unknown
Mean motion
3.82343 °/min
Orbital period
94.16 mins
BSTAR
0.00019854
Loading maneuver chart data...
Loading SW <> Apogee altitude chart data...
Loading historical data...
Loading historical data...
Loading historical data...
Loading historical data...
Loading historical data...
Loading historical data...
Loading historical data...

CONTECSAT-1 Visibility forecast

Observer location: undefined°, undefined°

Span
Click to sort rows by Start time (UTC) header in descending order
Start Az.
Max El. time (UTC)
Max El. Az.
Max El.
End time (UTC)
End Az.
6 mins2025-07-09 08:48:26.697Z174.374° S2025-07-09 08:51:26.697Z256.613° W43.499°2025-07-09 08:54:26.697Z342.59° N
5 mins2025-07-09 21:49:26.697Z354.351° N2025-07-09 21:51:26.697Z293.416° NW38.221°2025-07-09 21:54:26.697Z210.949° SW
|